[[{"header":{"parameterUnit":"m.s-1","parameterCategory":2,"la1":30.2991,"la2":30.254,"lo1":-89.0895,"lo2":-89.0444,"dy":0.0017,"dx":0.0017,"nx":28,"ny":28,"refTime":"2025-09-16T09:00:00:Z","depth":"0","parameterNumber":2,"parameterNumberName":"U-component_of_CURRENTS"},"data":[0,0,0,0,0,0,0,0,0,0,0,0,0,0,0,0,0,0,0,0,0,0,0,0,0,0,0,0,0,0,0,0,0,0,0,0,0,0,0,0,0,0,0,0,0,0,0,0,0,0,0,0,0,0,0,0,0,0,0.2342,0.2343,0,0.2423,0.2424,0.2424,0.2477,0.2477,0.2478,0.2478,0.2495,0.2495,0.2495,0,0,0,0,0,0,0,0,0,0,0,0,0,0.2256,0.2257,0.2342,0.2343,0.2344,0.2423,0.2424,0.2425,0.2477,0.2477,0.2478,0.2479,0.2495,0.2495,0.2495,0,0,0,0,0,0,0,0,0,0,0,0,0,0.2308,0.2257,0.2342,0.2382,0.2386,0.2423,0.2424,0.2425,0.2476,0.2477,0.2478,0.2479,0.2495,0.2495,0.2495,0.2478,0,0,0.2495,0.2494,0,0,0,0,0,0,0,0,0.2305,0.2311,0.2374,0.2379,0.2384,0.2443,0.24,0.244,0.2476,0.244,0.2478,0.2479,0.2472,0.2474,0.2485,0.2479,0.2479,0.2494,0.2494,0.2494,0.2494,0,0,0,0,0,0,0,0.2301,0.2308,0.2372,0.2376,0.2382,0.2404,0.2411,0.2408,0.2447,0.2443,0.2447,0.246,0.2474,0.2485,0.2486,0.248,0.2494,0.2494,0.2494,0.2494,0.2455,0.2454,0,0,0,0,0,0,0.2294,0.2304,0.2369,0.2374,0.2348,0.2404,0.2413,0.2421,0.2449,0.2455,0.2459,0.2462,0.2485,0.2486,0.2486,0.2477,0.2494,0.2494,0.2494,0.2456,0.2454,0.2453,0,0,0,0,0,0,0.2292,0.2299,0.2366,0.2343,0.2354,0.2405,0.2414,0.2422,0.2437,0.2463,0.2467,0.2466,0.2486,0.2487,0.2481,0.2477,0.2494,0.2494,0.2457,0.2455,0.2454,0.2451,0,0,0,0,0,0,0.2289,0.2297,0.2295,0.2343,0.2355,0.2394,0.2413,0.2423,0.2445,0.2449,0.2469,0.2472,0.2486,0.2481,0.2481,0.2478,0.2494,0.2458,0.2456,0.2454,0.2453,0.245,0.2448,0,0,0,0,0,0.2285,0.2287,0.2294,0.2302,0.2352,0.2394,0.2402,0.244,0.2444,0.2454,0.2458,0.2472,0.2469,0.248,0.248,0.2477,0.2459,0.2457,0.2454,0.2454,0.245,0.2448,0,0,0,0,0,0,0.2234,0.2294,0.2303,0.2317,0.2353,0.2404,0.2416,0.2434,0.2447,0.2445,0.2461,0.2463,0.246,0.2459,0.247,0.2457,0.2465,0.2462,0.2464,0.2461,0.2459,0.2455,0.2494,0,0,0,0,0,0.2223,0.2249,0.2297,0.2305,0.2323,0.2364,0.2382,0.2408,0.243,0.2437,0.2449,0.245,0.2449,0.2448,0.2451,0.2438,0.2443,0.2433,0.2431,0.2429,0.2424,0.2467,0.2469,0.2446,0.2446,0.2446,0,0,0.2203,0.224,0.2251,0.2298,0.2326,0.2352,0.2377,0.2407,0.2415,0.2433,0.2437,0.2445,0.2444,0.244,0.2437,0.2439,0.2424,0.2426,0.2425,0.2421,0.2465,0.2468,0.247,0.2444,0.2445,0.2445,0,0,0.2192,0.2209,0.2234,0.2267,0.2317,0.2339,0.2345,0.2392,0.2399,0.2408,0.2417,0.242,0.2422,0.2424,0.2423,0.2401,0.2415,0.2397,0.238,0.2422,0.2425,0.2428,0.2387,0.2386,0.2392,0.2392,0.2392,0,0.216,0.2201,0.2243,0.2278,0.2297,0.233,0.2349,0.2361,0.2395,0.239,0.2408,0.2414,0.2416,0.2406,0.2398,0.2398,0.24,0.2398,0.2422,0.2426,0.2429,0.2386,0.2386,0.2391,0.2391,0.2391,0.2391,0,0.2182,0.2208,0.2224,0.2276,0.2296,0.232,0.2345,0.2347,0.2356,0.2373,0.2375,0.239,0.2394,0.2393,0.2389,0.2397,0.238,0.2423,0.2438,0.2432,0.2385,0.2385,0.2391,0.2391,0.2391,0.2391,0,0,0.2111,0.222,0.2219,0.2245,0.2297,0.2312,0.231,0.232,0.2314,0.2343,0.2348,0.2347,0.2364,0.2361,0.2366,0.2392,0.2397,0.2411,0.2413,0.238,0.2434,0.2157,0.2129,0.2463,0.2464,0.2465,0.2375,0,0.2106,0.218,0.2221,0.2247,0.2281,0.2297,0.2291,0.2297,0.2308,0.2319,0.2334,0.2344,0.2349,0.2356,0.2384,0.2412,0.2404,0.2413,0.2434,0.2433,0.22,0.2123,0.1977,0.1862,0.2375,0.2375,0.2375,0,0.2103,0.2158,0.2207,0.2247,0.2254,0.226,0.2249,0.2254,0.2265,0.2276,0.2298,0.2322,0.2335,0.2365,0.2394,0.2406,0.2402,0.242,0.2419,0.2163,0.2155,0.196,0.1843,0.1794,0.2374,0.2374,0.2374,0,0.2059,0.2126,0.2165,0.2188,0.2244,0.223,0.2232,0.2236,0.223,0.2255,0.2266,0.2302,0.231,0.2362,0.2331,0.2396,0.2346,0.2452,0.2181,0.2161,0.2035,0.1998,0.1882,0.2458,0.2458,0.2459,0.2459,0,0.2049,0.2068,0.2148,0.2176,0.2173,0.2207,0.2191,0.2194,0.2208,0.2196,0.2244,0.224,0.232,0.2288,0.2313,0.2173,0.2319,0.2132,0.2114,0.2015,0.198,0.1931,0.1946,0.2455,0.2456,0.2457,0.2457,0,0.2011,0.2075,0.2113,0.2165,0.217,0.2164,0.2169,0.2161,0.2172,0.2165,0.2171,0.219,0.2122,0.2105,0.2131,0.2081,0.1931,0.1937,0.1741,0.1697,0.141,0.1428,0.1237,0.1223,0.1673,0.1666,0.1659,0,0.2009,0.204,0.2099,0.2113,0.2137,0.2137,0.2134,0.2143,0.2132,0.2118,0.2108,0.2028,0.194,0.1785,0.1665,0.1544,0.1607,0.1329,0.1419,0.1301,0.1318,0.1356,0.1369,0.1259,0.125,0.1242,0.1236,0,0.2006,0.2028,0.2076,0.2101,0.2106,0.2094,0.2084,0.2068,0.2058,0.2014,0.1933,0.1862,0.1642,0.1406,0.1156,0.111,0.122,0.1165,0.116,0.1024,0.0954,0.0961,0.1368,0.117,0.1177,0.1181,0.1185,0.1188,0.1996,0.2018,0.208,0.2077,0.208,0.2034,0.1965,0.1942,0.1867,0.1718,0.1732,0.1494,0.1229,0.0856,0.0784,0.0503,0.0696,0.0509,0.0554,0.0613,0.054,0.0696,0.0399,0.0401,0.0403,0.0405,0.0406,0,0.1994,0.2027,0.2044,0.2033,0.1973,0.1982,0.1912,0.179,0.1634,0.1488,0.1327,0.0902,0.0593,0.0389,0.0038,-0.0056,0.0075,-0.0057,0.0074,0.0139,0.0372,0.0293,-0.0186,-0.0186,-0.0186,-0.0185,-0.0185,-0.0185,0.2004,0.2031,0.2024,0.1924,0.1879,0.1722,0.1635,0.147,0.1314,0.0942,0.0635,0.0476,0.0194,-0.02,-0.0423,-0.0408,-0.0295,-0.0404,-0.026,-0.0006,0.0056,0.0116,0.0046,-0.0476,-0.0476,-0.048,-0.0481,-0.0481]},{"header":{"parameterUnit":"m.s-1","parameterCategory":2,"la1":30.2991,"la2":30.254,"lo1":-89.0895,"lo2":-89.0444,"dy":0.0017,"dx":0.0017,"nx":28,"ny":28,"refTime":"2025-09-16T09:00:00:Z","depth":"0","parameterNumber":3,"parameterNumberName":"V-component_of_CURRENTS"},"data":[0,0,0,0,0,0,0,0,0,0,0,0,0,0,0,0,0,0,0,0,0,0,0,0,0,0,0,0,0,0,0,0,0,0,0,0,0,0,0,0,0,0,0,0,0,0,0,0,0,0,0,0,0,0,0,0,0,0,0.0123,0.0123,0,0.0108,0.0108,0.0107,0.0105,0.0105,0.0105,0.0106,0.0126,0.0127,0.0127,0,0,0,0,0,0,0,0,0,0,0,0,0,0.0162,0.0162,0.0123,0.0123,0.0123,0.0108,0.0108,0.0107,0.0105,0.0105,0.0105,0.0106,0.0126,0.0126,0.0127,0,0,0,0,0,0,0,0,0,0,0,0,0,0.0145,0.0161,0.0123,0.012,0.012,0.0108,0.0108,0.0107,0.0105,0.0105,0.0105,0.0106,0.0126,0.0126,0.0127,0.0125,0,0,0.0129,0.0129,0,0,0,0,0,0,0,0,0.0146,0.0144,0.0121,0.0121,0.012,0.0109,0.0129,0.0115,0.0105,0.011,0.0106,0.0106,0.0124,0.0125,0.012,0.0126,0.0126,0.0129,0.0129,0.0129,0.0129,0,0,0,0,0,0,0,0.0148,0.0145,0.0116,0.0121,0.012,0.0124,0.0122,0.0126,0.0116,0.011,0.011,0.0109,0.0124,0.0119,0.012,0.0127,0.0129,0.0129,0.013,0.013,0.021,0.0212,0,0,0,0,0,0,0.0149,0.0146,0.0117,0.0116,0.0135,0.0123,0.012,0.0112,0.0115,0.0116,0.0108,0.0109,0.0118,0.012,0.0121,0.0169,0.0129,0.013,0.013,0.0208,0.021,0.0212,0,0,0,0,0,0,0.015,0.0147,0.0118,0.0132,0.0128,0.0122,0.0112,0.0111,0.011,0.0114,0.0115,0.0108,0.0118,0.012,0.0129,0.0168,0.013,0.0131,0.0206,0.0209,0.0211,0.0234,0,0,0,0,0,0,0.0151,0.0147,0.0141,0.0131,0.0127,0.0115,0.0112,0.0111,0.0109,0.0109,0.0114,0.0116,0.0119,0.0128,0.013,0.0168,0.0131,0.0204,0.0207,0.021,0.0231,0.0237,0.0242,0,0,0,0,0,0.0153,0.015,0.0141,0.0137,0.0119,0.0115,0.0113,0.011,0.0109,0.0109,0.0113,0.0116,0.0153,0.0129,0.0131,0.0171,0.0202,0.0206,0.021,0.0228,0.0236,0.0242,0,0,0,0,0,0,0.0166,0.0149,0.0139,0.013,0.0123,0.0115,0.0116,0.0111,0.0112,0.0114,0.0117,0.012,0.0148,0.0155,0.0129,0.0208,0.0187,0.0191,0.02,0.0207,0.0213,0.0243,0.0131,0,0,0,0,0,0.0164,0.0157,0.0142,0.0136,0.0132,0.0122,0.012,0.0116,0.0116,0.0116,0.0118,0.0137,0.0165,0.0179,0.0194,0.0222,0.0251,0.0259,0.0264,0.0269,0.0298,0.0398,0.0416,0.0226,0.0225,0.0225,0,0,0.017,0.0158,0.0156,0.0139,0.0132,0.0126,0.0122,0.012,0.0125,0.0119,0.0127,0.0145,0.0175,0.0211,0.0228,0.0222,0.0325,0.0274,0.0278,0.0305,0.0404,0.0423,0.044,0.0228,0.0228,0.0227,0,0,0.0176,0.0165,0.0159,0.0149,0.0138,0.0134,0.0134,0.0124,0.0131,0.0134,0.0151,0.02,0.0204,0.0261,0.0286,0.0336,0.0345,0.0336,0.0396,0.0492,0.0509,0.0524,0.0523,0.0538,0.0348,0.0348,0.0348,0,0.0181,0.0166,0.0158,0.0146,0.0145,0.0138,0.0135,0.014,0.0135,0.017,0.014,0.0234,0.0244,0.035,0.0362,0.0354,0.0372,0.036,0.05,0.0516,0.0532,0.0528,0.0544,0.0349,0.0349,0.0349,0.0349,0,0.0177,0.0163,0.0162,0.0144,0.0146,0.0143,0.0147,0.0162,0.0167,0.0191,0.0276,0.0302,0.0377,0.0388,0.038,0.0511,0.047,0.0486,0.048,0.0552,0.0542,0.0559,0.0351,0.0351,0.035,0.035,0,0,0.0187,0.0163,0.0161,0.016,0.0144,0.0154,0.0175,0.0218,0.0278,0.0289,0.0387,0.0438,0.048,0.0515,0.054,0.0619,0.0704,0.0594,0.0598,0.0586,0.0849,0.0781,0.0791,0.0745,0.0749,0.0753,0.0775,0,0.0183,0.0166,0.0159,0.0163,0.0158,0.0174,0.0209,0.0257,0.0303,0.0393,0.0474,0.0558,0.0522,0.0575,0.0651,0.0708,0.0761,0.0693,0.0788,0.079,0.0719,0.0815,0.0784,0.0801,0.0791,0.0794,0.0796,0,0.0177,0.0169,0.0162,0.0192,0.0198,0.0208,0.0301,0.0333,0.0459,0.0507,0.0619,0.0671,0.0795,0.0754,0.0889,0.0843,0.0849,0.0873,0.0876,0.083,0.0758,0.0742,0.0832,0.0873,0.0822,0.082,0.0818,0,0.0192,0.0182,0.0184,0.0181,0.0207,0.024,0.0274,0.0378,0.0452,0.0598,0.0676,0.0813,0.0892,0.0961,0.097,0.0948,0.1094,0.1076,0.1011,0.1001,0.1007,0.0992,0.1156,0.1182,0.1182,0.1182,0.1182,0,0.0189,0.0197,0.0192,0.0192,0.0249,0.0261,0.0364,0.0424,0.0553,0.0669,0.0744,0.0856,0.0954,0.1029,0.1029,0.1061,0.1139,0.1048,0.1039,0.1003,0.0988,0.1048,0.1069,0.1183,0.1182,0.1182,0.1182,0,0.0206,0.019,0.0204,0.0229,0.0249,0.0295,0.04,0.0494,0.0583,0.0739,0.0788,0.0921,0.1001,0.1047,0.1151,0.1127,0.1185,0.1147,0.104,0.102,0.0997,0.1019,0.1171,0.1204,0.1108,0.1107,0.1106,0,0.0217,0.0213,0.0236,0.0271,0.0282,0.0353,0.0426,0.0512,0.0607,0.077,0.0854,0.0962,0.1043,0.1128,0.112,0.1116,0.1153,0.1072,0.1053,0.1026,0.1045,0.1057,0.1075,0.1034,0.1033,0.1031,0.1031,0,0.025,0.0249,0.0268,0.0324,0.0383,0.046,0.055,0.0616,0.0728,0.0822,0.0939,0.1007,0.1069,0.1079,0.1058,0.1049,0.1109,0.1046,0.1106,0.1089,0.1036,0.105,0.0912,0.1021,0.1022,0.1022,0.1023,0.1023,0.0296,0.0319,0.0343,0.0402,0.0472,0.0553,0.0604,0.0686,0.0788,0.0883,0.095,0.0986,0.1033,0.1009,0.1019,0.0999,0.1033,0.0997,0.1041,0.1065,0.1083,0.0869,0.0918,0.0919,0.0919,0.0919,0.0919,0,0.0354,0.0378,0.0434,0.0495,0.0568,0.0589,0.0688,0.0715,0.0781,0.0834,0.0884,0.0881,0.0928,0.0954,0.0957,0.0993,0.1029,0.1029,0.1082,0.1115,0.1006,0.0988,0.0951,0.0951,0.0951,0.0951,0.0951,0.0951,0.0393,0.0444,0.0459,0.0565,0.0609,0.0674,0.0708,0.0723,0.0741,0.0723,0.0685,0.0684,0.0743,0.096,0.1045,0.1062,0.1165,0.1138,0.1216,0.116,0.1161,0.1163,0.1155,0.1154,0.1154,0.1308,0.1309,0.131]}],[{"header":{"parameterUnit":"m.s-1","parameterCategory":2,"la1":30.2991,"la2":30.254,"lo1":-89.0895,"lo2":-89.0444,"dy":0.0017,"dx":0.0017,"nx":28,"ny":28,"refTime":"2025-09-16T09:00:00:Z","depth":"2","parameterNumber":2,"parameterNumberName":"U-component_of_CURRENTS"},"data":[0,0,0,0,0,0,0,0,0,0,0,0,0,0,0,0,0,0,0,0,0,0,0,0,0,0,0,0,0,0,0,0,0,0,0,0,0,0,0,0,0,0,0,0,0,0,0,0,0,0,0,0,0,0,0,0,0,0,0.1111,0.1112,0,0.1121,0.1121,0.112,0.1142,0.1143,0.1144,0.1145,0.1209,0.1209,0.121,0,0,0,0,0,0,0,0,0,0,0,0,0,0.1127,0.1126,0.1111,0.1112,0.1112,0.1121,0.1121,0.112,0.1142,0.1143,0.1144,0.1145,0.1208,0.1209,0.121,0,0,0,0,0,0,0,0,0,0,0,0,0,0.1123,0.1126,0.1111,0.1127,0.1129,0.1121,0.1121,0.112,0.1142,0.1143,0.1145,0.1146,0.1208,0.1209,0.1211,0.1194,0,0,0.1215,0.1216,0,0,0,0,0,0,0,0,0.1123,0.1122,0.1124,0.1126,0.1128,0.1135,0.115,0.1149,0.1142,0.1133,0.1145,0.1146,0.1191,0.1194,0.1186,0.1197,0.12,0.1215,0.1216,0.1216,0.1217,0,0,0,0,0,0,0,0.1123,0.1122,0.1111,0.1125,0.1127,0.114,0.114,0.1149,0.1153,0.1134,0.1136,0.1143,0.1192,0.1185,0.1188,0.1201,0.1215,0.1216,0.1217,0.1218,0.1337,0.1339,0,0,0,0,0,0,0.1128,0.1122,0.1111,0.1112,0.1133,0.1138,0.1138,0.1128,0.1151,0.1157,0.1142,0.1144,0.1182,0.1186,0.1191,0.1274,0.1216,0.1218,0.1219,0.1335,0.1337,0.134,0,0,0,0,0,0,0.1128,0.1126,0.111,0.1121,0.1121,0.1137,0.1126,0.1128,0.1151,0.1158,0.1164,0.1168,0.1183,0.1189,0.1232,0.1273,0.1218,0.122,0.1332,0.1335,0.1339,0.1377,0,0,0,0,0,0,0.1128,0.1125,0.1127,0.1121,0.1121,0.1126,0.1125,0.1127,0.1154,0.1158,0.1181,0.1186,0.1184,0.123,0.1234,0.1274,0.1221,0.1329,0.1333,0.1338,0.1373,0.1381,0.1389,0,0,0,0,0,0.1128,0.1125,0.1127,0.1127,0.1119,0.1127,0.1128,0.1141,0.1155,0.1166,0.1191,0.1187,0.1261,0.1232,0.1236,0.1278,0.1327,0.1332,0.1337,0.1369,0.138,0.1389,0,0,0,0,0,0,0.1131,0.1127,0.1129,0.1124,0.1136,0.1133,0.1146,0.1157,0.1182,0.1196,0.1203,0.121,0.1266,0.127,0.1238,0.133,0.1299,0.1305,0.1323,0.1332,0.134,0.1321,0.1222,0,0,0,0,0,0.1132,0.1134,0.1132,0.1136,0.1139,0.1148,0.1157,0.117,0.1187,0.12,0.1219,0.1251,0.1284,0.1307,0.1328,0.1369,0.1376,0.1406,0.1414,0.142,0.1411,0.153,0.1548,0.1357,0.1357,0.1357,0,0,0.1138,0.1136,0.114,0.1139,0.1145,0.1142,0.1156,0.118,0.1188,0.1204,0.1233,0.1275,0.1301,0.135,0.1377,0.1363,0.1462,0.1427,0.1432,0.1419,0.1538,0.1556,0.1573,0.1361,0.136,0.136,0,0,0.1141,0.1146,0.1143,0.1148,0.1166,0.1166,0.1181,0.1196,0.1216,0.1248,0.1275,0.1343,0.1374,0.1412,0.1432,0.1499,0.15,0.1522,0.1546,0.1664,0.168,0.1695,0.1648,0.1659,0.1529,0.1529,0.1529,0,0.1157,0.1135,0.1148,0.1142,0.1148,0.1177,0.1175,0.119,0.1225,0.1255,0.1267,0.1373,0.1399,0.1475,0.1502,0.1515,0.1536,0.1503,0.1674,0.1689,0.1704,0.1653,0.1665,0.1531,0.1531,0.1531,0.153,0,0.1138,0.1134,0.1137,0.113,0.114,0.1152,0.1168,0.1202,0.1238,0.1264,0.1359,0.1415,0.1487,0.1518,0.1523,0.1648,0.1607,0.1668,0.1644,0.1725,0.1666,0.1676,0.1535,0.1534,0.1533,0.1533,0,0,0.114,0.1127,0.1126,0.1129,0.1138,0.1149,0.1169,0.1203,0.1248,0.1309,0.1381,0.146,0.1527,0.1556,0.1609,0.1703,0.1796,0.1732,0.1737,0.167,0.1955,0.1645,0.1626,0.1918,0.1923,0.1926,0.1842,0,0.1126,0.1107,0.1102,0.1104,0.1103,0.1134,0.1154,0.12,0.1257,0.1337,0.143,0.152,0.1531,0.1607,0.1702,0.1797,0.1842,0.1805,0.1898,0.1896,0.1605,0.1637,0.1549,0.1447,0.1852,0.1854,0.1855,0,0.1107,0.1094,0.1087,0.1106,0.1109,0.1123,0.1188,0.1213,0.1317,0.1375,0.1485,0.1562,0.1685,0.1717,0.1867,0.1856,0.1895,0.1945,0.1946,0.1653,0.161,0.1451,0.1451,0.1873,0.1872,0.187,0.1869,0,0.111,0.1093,0.1092,0.1094,0.1112,0.114,0.1164,0.1243,0.1297,0.1429,0.1503,0.1637,0.174,0.1848,0.1877,0.1931,0.1999,0.2097,0.1818,0.1791,0.1724,0.1682,0.2199,0.2199,0.2199,0.2199,0.2199,0,0.1102,0.1102,0.1103,0.1108,0.1136,0.1152,0.1222,0.1268,0.137,0.145,0.1547,0.1631,0.1807,0.1844,0.1883,0.1801,0.1995,0.1786,0.1771,0.1717,0.1679,0.208,0.2068,0.2196,0.2197,0.2197,0.2198,0,0.1118,0.1108,0.1119,0.1134,0.1148,0.118,0.1252,0.1307,0.1392,0.1506,0.156,0.1674,0.169,0.1709,0.1835,0.1768,0.1752,0.1668,0.1472,0.1432,0.1463,0.1454,0.1406,0.1394,0.1385,0.1377,0.1371,0,0.1126,0.1135,0.1152,0.1166,0.1181,0.1227,0.1266,0.1332,0.139,0.1511,0.1565,0.1599,0.1552,0.1462,0.1403,0.1285,0.1456,0.1107,0.1197,0.1401,0.1394,0.14,0.1403,0.1113,0.1105,0.1098,0.1093,0,0.1143,0.116,0.1159,0.12,0.1235,0.127,0.1327,0.136,0.144,0.1468,0.1471,0.1424,0.1305,0.112,0.0903,0.0866,0.1115,0.0955,0.1329,0.1271,0.1105,0.1103,0.1122,0.1033,0.1039,0.1044,0.1047,0.1049,0.116,0.1173,0.119,0.1231,0.1269,0.1305,0.1289,0.1312,0.1318,0.1277,0.1297,0.1113,0.1061,0.0648,0.0556,0.049,0.0619,0.0633,0.0666,0.0704,0.0629,0.0451,0.0235,0.0236,0.0237,0.0238,0.0239,0,0.1155,0.1186,0.1222,0.1238,0.1251,0.1294,0.1317,0.1233,0.1143,0.1064,0.0938,0.0687,0.0457,0.0404,0.0212,0.0121,0.0276,0.0105,0.0372,0.0425,0.0474,0.0403,-0.0059,-0.0059,-0.006,-0.0061,0,0,0.1154,0.1168,0.1192,0.1208,0.1223,0.1187,0.1164,0.1017,0.0912,0.0688,0.0523,0.0401,0.0362,0.0166,0.0104,0.0006,0.024,-0.0021,0.0214,0.0584,0.0634,0.0753,0.0693,0,0,0,0,0]},{"header":{"parameterUnit":"m.s-1","parameterCategory":2,"la1":30.2991,"la2":30.254,"lo1":-89.0895,"lo2":-89.0444,"dy":0.0017,"dx":0.0017,"nx":28,"ny":28,"refTime":"2025-09-16T09:00:00:Z","depth":"2","parameterNumber":3,"parameterNumberName":"V-component_of_CURRENTS"},"data":[0,0,0,0,0,0,0,0,0,0,0,0,0,0,0,0,0,0,0,0,0,0,0,0,0,0,0,0,0,0,0,0,0,0,0,0,0,0,0,0,0,0,0,0,0,0,0,0,0,0,0,0,0,0,0,0,0,0,-0.0098,-0.0098,0,-0.0092,-0.0092,-0.0092,-0.0099,-0.01,-0.01,-0.01,-0.0128,-0.0129,-0.0129,0,0,0,0,0,0,0,0,0,0,0,0,0,-0.0099,-0.0099,-0.0098,-0.0098,-0.0098,-0.0092,-0.0092,-0.0092,-0.0099,-0.01,-0.01,-0.0101,-0.0128,-0.0129,-0.0129,0,0,0,0,0,0,0,0,0,0,0,0,0,-0.0096,-0.0099,-0.0098,-0.0102,-0.0102,-0.0092,-0.0092,-0.0092,-0.0099,-0.01,-0.01,-0.0101,-0.0128,-0.0129,-0.0129,-0.0124,0,0,-0.0132,-0.0132,0,0,0,0,0,0,0,0,-0.0096,-0.0096,-0.0101,-0.0102,-0.0102,-0.0098,-0.0103,-0.0105,-0.0099,-0.01,-0.01,-0.0101,-0.0121,-0.0123,-0.0119,-0.0125,-0.0126,-0.0132,-0.0132,-0.0132,-0.0132,0,0,0,0,0,0,0,-0.0097,-0.0096,-0.0096,-0.0101,-0.0102,-0.0098,-0.0098,-0.0103,-0.0108,-0.01,-0.01,-0.01,-0.0122,-0.0118,-0.012,-0.0127,-0.0132,-0.0132,-0.0133,-0.0133,-0.014,-0.014,0,0,0,0,0,0,-0.0099,-0.0096,-0.0096,-0.0095,-0.0101,-0.0097,-0.0097,-0.0098,-0.0107,-0.0109,-0.01,-0.0101,-0.0117,-0.0119,-0.0121,-0.0126,-0.0132,-0.0133,-0.0133,-0.014,-0.014,-0.014,0,0,0,0,0,0,-0.0099,-0.0099,-0.0096,-0.0096,-0.0096,-0.0097,-0.0097,-0.0098,-0.0106,-0.0107,-0.011,-0.0109,-0.0117,-0.012,-0.0139,-0.0127,-0.0133,-0.0134,-0.014,-0.014,-0.014,-0.013,0,0,0,0,0,0,-0.0099,-0.0099,-0.0103,-0.0096,-0.0096,-0.0095,-0.0097,-0.0097,-0.0105,-0.0106,-0.0116,-0.0118,-0.0118,-0.0138,-0.0139,-0.0128,-0.0134,-0.0141,-0.014,-0.014,-0.0131,-0.013,-0.0129,0,0,0,0,0,-0.0099,-0.0101,-0.0104,-0.0104,-0.0101,-0.0095,-0.0094,-0.0096,-0.0105,-0.0106,-0.012,-0.0118,-0.0136,-0.0139,-0.0141,-0.0129,-0.0141,-0.014,-0.014,-0.0131,-0.013,-0.0129,0,0,0,0,0,0,-0.0098,-0.0102,-0.0105,-0.0107,-0.0104,-0.0097,-0.01,-0.0102,-0.0113,-0.0122,-0.0125,-0.0128,-0.0139,-0.0138,-0.0141,-0.0129,-0.0134,-0.0134,-0.0127,-0.0126,-0.0125,-0.0097,-0.0135,0,0,0,0,0,-0.0102,-0.011,-0.0105,-0.0108,-0.0108,-0.0107,-0.0107,-0.011,-0.0115,-0.0121,-0.0128,-0.0134,-0.0135,-0.0136,-0.0141,-0.0139,-0.0097,-0.013,-0.0129,-0.0128,-0.0106,0.0008,0.0023,-0.0138,-0.0138,-0.0138,0,0,-0.0104,-0.0106,-0.0111,-0.011,-0.0109,-0.0106,-0.0109,-0.0113,-0.0112,-0.0123,-0.0133,-0.0139,-0.0137,-0.0135,-0.0137,-0.0134,-0.0075,-0.0127,-0.0127,-0.0105,0.0011,0.0027,0.0042,-0.0138,-0.0138,-0.0138,0,0,-0.0105,-0.0113,-0.0117,-0.0116,-0.0118,-0.0115,-0.012,-0.012,-0.0123,-0.0135,-0.0136,-0.0127,-0.0148,-0.0121,-0.0116,-0.0109,-0.0078,-0.0123,-0.0087,0.0023,0.0039,0.0053,0.0069,0.0084,-0.0114,-0.0114,-0.0114,0,-0.0109,-0.0111,-0.0116,-0.0115,-0.0115,-0.0121,-0.0119,-0.0119,-0.0127,-0.0119,-0.0142,-0.0121,-0.0129,-0.0084,-0.0089,-0.0102,-0.0065,-0.0094,0.0029,0.0044,0.0059,0.0072,0.009,-0.0114,-0.0114,-0.0114,-0.0114,0,-0.0106,-0.0112,-0.0114,-0.0117,-0.0115,-0.0118,-0.0115,-0.0117,-0.0129,-0.012,-0.0098,-0.0092,-0.0067,-0.0072,-0.0086,0.0007,-0.0014,0.0013,0.0032,0.0077,0.0085,0.0104,-0.0113,-0.0113,-0.0113,-0.0113,0,0,-0.0106,-0.0113,-0.0113,-0.0116,-0.0119,-0.0115,-0.0112,-0.0097,-0.0075,-0.008,-0.003,-0.0034,-0.0015,-0.0005,0.0001,0.0087,0.0185,0.0089,0.0095,0.0113,0.0371,0.0278,0.0288,0.0247,0.0251,0.0255,0.0314,0,-0.0104,-0.0107,-0.0106,-0.0107,-0.0111,-0.0108,-0.0095,-0.0082,-0.007,-0.0023,0.001,0.0048,0.0008,0.0034,0.0111,0.0191,0.0243,0.0162,0.0317,0.032,0.0245,0.0312,0.0296,0.0344,0.0332,0.0335,0.0338,0,-0.0101,-0.0104,-0.0111,-0.0103,-0.01,-0.0101,-0.007,-0.0057,0.0006,0.0026,0.0082,0.0113,0.0214,0.0186,0.0345,0.0298,0.0324,0.0372,0.0377,0.0312,0.0265,0.031,0.0378,0.0368,0.0366,0.0363,0.0361,0,-0.0107,-0.0104,-0.0114,-0.0116,-0.0107,-0.0105,-0.0093,-0.0049,-0.0005,0.0075,0.0143,0.0232,0.0323,0.0401,0.0452,0.0426,0.0626,0.0611,0.0531,0.0521,0.055,0.0536,0.0718,0.0718,0.0718,0.0718,0.0718,0,-0.0113,-0.0117,-0.0123,-0.0131,-0.0117,-0.0112,-0.0071,-0.0046,0.0042,0.0137,0.0176,0.029,0.0398,0.0503,0.0513,0.0574,0.0673,0.0555,0.0561,0.054,0.0524,0.059,0.0574,0.072,0.072,0.0719,0.0719,0,-0.0127,-0.0134,-0.014,-0.0136,-0.013,-0.0124,-0.0057,-0.0001,0.0066,0.0205,0.0249,0.0393,0.0522,0.0567,0.0712,0.0667,0.0722,0.0696,0.0603,0.0597,0.0512,0.0496,0.0641,0.0639,0.0637,0.0636,0.0634,0,-0.0135,-0.0147,-0.0146,-0.0128,-0.0131,-0.0106,-0.0062,-0.0003,0.0082,0.0274,0.0368,0.0513,0.0609,0.0723,0.0709,0.0695,0.07,0.063,0.058,0.0528,0.0519,0.0506,0.0492,0.0598,0.0597,0.0595,0.0594,0,-0.0138,-0.0147,-0.0141,-0.0111,-0.0082,-0.0024,0.0043,0.0112,0.023,0.0348,0.0531,0.0612,0.0696,0.0705,0.0646,0.0629,0.0631,0.0599,0.0674,0.0592,0.0486,0.0476,0.0466,0.0584,0.0585,0.0586,0.0586,0.0587,-0.0125,-0.0117,-0.01,-0.0064,-0.0014,0.0077,0.0129,0.0223,0.0352,0.0501,0.059,0.0653,0.068,0.0578,0.0578,0.0539,0.0543,0.0507,0.0513,0.052,0.0477,0.0372,0.0435,0.0435,0.0435,0.0435,0.0436,0,-0.0079,-0.0063,-0.0033,0.0029,0.0113,0.0118,0.0235,0.0281,0.0413,0.0478,0.0567,0.0542,0.0541,0.0538,0.0466,0.0434,0.0461,0.0419,0.0472,0.0481,0.0489,0.0448,0.0397,0.0397,0.0397,0.0397,0,0,-0.0047,-0.0006,0.0012,0.015,0.0201,0.0286,0.0347,0.0379,0.0405,0.0435,0.0426,0.0455,0.0485,0.0424,0.0433,0.0403,0.0437,0.0391,0.0421,0.049,0.0499,0.0535,0.0479,0,0,0,0,0]}],[{"header":{"parameterUnit":"m.s-1","parameterCategory":2,"la1":30.2991,"la2":30.254,"lo1":-89.0895,"lo2":-89.0444,"dy":0.0017,"dx":0.0017,"nx":28,"ny":28,"refTime":"2025-09-16T09:00:00:Z","depth":"4","parameterNumber":2,"parameterNumberName":"U-component_of_CURRENTS"},"data":[0,0,0,0,0,0,0,0,0,0,0,0,0,0,0,0,0,0,0,0,0,0,0,0,0,0,0,0,0,0,0,0,0,0,0,0,0,0,0,0,0,0,0,0,0,0,0,0,0,0,0,0,0,0,0,0,0,0,-0.0276,-0.0277,0,-0.0329,-0.0329,-0.033,-0.0346,-0.0346,-0.0345,-0.0345,-0.0346,-0.0346,-0.0346,0,0,0,0,0,0,0,0,0,0,0,0,0,-0.0148,-0.015,-0.0276,-0.0277,-0.0278,-0.0329,-0.0329,-0.033,-0.0346,-0.0346,-0.0345,-0.0345,-0.0346,-0.0346,-0.0346,0,0,0,0,0,0,0,0,0,0,0,0,0,-0.0202,-0.0151,-0.0276,-0.0292,-0.0294,-0.0329,-0.0329,-0.033,-0.0346,-0.0346,-0.0345,-0.0345,-0.0346,-0.0346,-0.0347,-0.0355,0,0,-0.0347,-0.0348,0,0,0,0,0,0,0,0,-0.0199,-0.0206,-0.0289,-0.0291,-0.0294,-0.0331,-0.0284,-0.0336,-0.0346,-0.0326,-0.0345,-0.0345,-0.0337,-0.0338,-0.0348,-0.0355,-0.0355,-0.0348,-0.0348,-0.0348,-0.0348,0,0,0,0,0,0,0,-0.0195,-0.0204,-0.0296,-0.029,-0.0293,-0.0283,-0.029,-0.0294,-0.0331,-0.0327,-0.0329,-0.0336,-0.0338,-0.0348,-0.0348,-0.0355,-0.0348,-0.0348,-0.0348,-0.0348,-0.0276,-0.0274,0,0,0,0,0,0,-0.0193,-0.0201,-0.0295,-0.0298,-0.0245,-0.0285,-0.0294,-0.0319,-0.0332,-0.0334,-0.0336,-0.0336,-0.0348,-0.0348,-0.0348,-0.0289,-0.0348,-0.0348,-0.0348,-0.0278,-0.0275,-0.0273,0,0,0,0,0,0,-0.019,-0.0202,-0.0293,-0.025,-0.0261,-0.0288,-0.0316,-0.032,-0.033,-0.0339,-0.034,-0.0342,-0.0347,-0.0348,-0.0348,-0.0291,-0.0348,-0.0349,-0.028,-0.0277,-0.0274,-0.0214,0,0,0,0,0,0,-0.0187,-0.0201,-0.021,-0.025,-0.0263,-0.0314,-0.0316,-0.0321,-0.0336,-0.0337,-0.0345,-0.0345,-0.0347,-0.0347,-0.0348,-0.0293,-0.0349,-0.0283,-0.0279,-0.0275,-0.0218,-0.0209,-0.0201,0,0,0,0,0,-0.0182,-0.0206,-0.021,-0.0221,-0.0278,-0.0314,-0.032,-0.0337,-0.0336,-0.0344,-0.0344,-0.0345,-0.0321,-0.0348,-0.0348,-0.0292,-0.0285,-0.028,-0.0276,-0.0222,-0.0211,-0.0201,0,0,0,0,0,0,-0.0158,-0.0211,-0.0216,-0.0255,-0.0279,-0.0317,-0.0323,-0.0337,-0.0345,-0.0338,-0.0345,-0.0345,-0.0316,-0.0318,-0.0347,-0.0255,-0.0292,-0.0287,-0.025,-0.024,-0.0231,-0.0208,-0.0349,0,0,0,0,0,-0.0155,-0.0186,-0.0226,-0.0255,-0.0263,-0.029,-0.0304,-0.0318,-0.0334,-0.0338,-0.0344,-0.0327,-0.0298,-0.0284,-0.0276,-0.0244,-0.0245,-0.0198,-0.0189,-0.0181,-0.0161,-0.0123,-0.0109,-0.0258,-0.0258,-0.0258,0,0,-0.0155,-0.0186,-0.0203,-0.025,-0.0266,-0.0286,-0.0298,-0.0319,-0.032,-0.0335,-0.0331,-0.0313,-0.0287,-0.0244,-0.0226,-0.0238,-0.0143,-0.0175,-0.0169,-0.0152,-0.0116,-0.0102,-0.0089,-0.0254,-0.0255,-0.0255,0,0,-0.0171,-0.0192,-0.022,-0.0238,-0.0264,-0.0279,-0.0285,-0.0318,-0.0309,-0.0308,-0.0295,-0.0249,-0.0237,-0.0189,-0.0162,-0.0101,-0.0107,-0.0083,-0.001,0.0026,0.0039,0.005,0.0047,0.0057,-0.0067,-0.0067,-0.0067,0,-0.0154,-0.021,-0.023,-0.0254,-0.0264,-0.0276,-0.0296,-0.029,-0.0315,-0.0285,-0.0298,-0.0214,-0.02,-0.0104,-0.0065,-0.0078,-0.0074,-0.0057,0.0037,0.0048,0.0058,0.0053,0.0063,-0.0063,-0.0064,-0.0064,-0.0064,0,-0.0198,-0.0227,-0.024,-0.0273,-0.0283,-0.0303,-0.0299,-0.0286,-0.0271,-0.0252,-0.0171,-0.014,-0.0075,-0.0047,-0.0033,0.0075,0.0047,0.0031,0.0006,0.0077,0.0066,0.0076,-0.0058,-0.0059,-0.006,-0.0061,0,0,-0.019,-0.0258,-0.0261,-0.0268,-0.0294,-0.0303,-0.0279,-0.0251,-0.0202,-0.0176,-0.0107,-0.0014,0.0032,0.0068,0.0106,0.0159,0.0231,0.0144,0.0144,0.0134,0.0292,0.021,0.0212,0.0233,0.0236,0.0238,0.0247,0,-0.0209,-0.0268,-0.029,-0.0309,-0.0328,-0.031,-0.0276,-0.0236,-0.019,-0.0124,-0.0032,0.0044,0.0069,0.0127,0.0188,0.0215,0.0265,0.0229,0.0232,0.0232,0.0146,0.0224,0.0247,0.0254,0.0256,0.0258,0.0259,0,-0.0244,-0.0273,-0.032,-0.031,-0.0308,-0.0301,-0.0229,-0.0194,-0.0088,-0.004,0.0064,0.0113,0.023,0.0224,0.0325,0.0302,0.032,0.033,0.033,0.0245,0.0171,0.0176,0.0276,0.0275,0.0274,0.0272,0.0271,0,-0.0248,-0.0282,-0.0319,-0.0327,-0.0321,-0.0287,-0.0243,-0.0153,-0.009,0.0033,0.008,0.0201,0.0266,0.0322,0.0353,0.0352,0.0419,0.0404,0.0345,0.0337,0.0376,0.0364,0.0481,0.0481,0.0481,0.0481,0.0481,0,-0.0272,-0.0291,-0.0312,-0.0329,-0.0287,-0.0265,-0.0176,-0.0117,-0.0011,0.0063,0.0148,0.0204,0.03,0.0337,0.0365,0.0376,0.0427,0.0378,0.0352,0.0397,0.0388,0.0381,0.0369,0.0481,0.0481,0.0481,0.0481,0,-0.029,-0.0325,-0.0346,-0.0328,-0.0302,-0.0255,-0.014,-0.008,0.0021,0.011,0.015,0.023,0.0275,0.0322,0.0386,0.0377,0.0394,0.0382,0.0406,0.0376,0.0285,0.0276,0.0335,0.0332,0.033,0.0329,0.0327,0,-0.0313,-0.0342,-0.0339,-0.0319,-0.0306,-0.0221,-0.0167,-0.0062,-0.0011,0.0106,0.0124,0.02,0.0243,0.0276,0.0311,0.034,0.034,0.0336,0.0357,0.0311,0.0279,0.0274,0.0268,0.0324,0.0324,0.0323,0.0323,0,-0.0335,-0.035,-0.0361,-0.0326,-0.0284,-0.022,-0.0136,-0.0096,0.0007,0.0069,0.0133,0.0176,0.0207,0.0247,0.0265,0.0282,0.0336,0.0315,0.0321,0.0341,0.0298,0.0268,0.0265,0.0316,0.0317,0.0317,0.0318,0,-0.0338,-0.0342,-0.0359,-0.031,-0.0271,-0.022,-0.0169,-0.0104,-0.0032,0.0077,0.0078,0.0149,0.02,0.0212,0.0219,0.0236,0.0246,0.0248,0.0257,0.0265,0.0236,0.0171,0.0149,0,0,0,0,0,-0.0327,-0.0334,-0.0321,-0.0283,-0.0254,-0.0215,-0.016,-0.0119,-0.005,-0.001,0.0057,0.0088,0.0135,0.0152,0.016,0.0157,0.0224,0.016,0.0224,0.0276,0.0285,0.0255,0,0,0,0,0,0,-0.0323,-0.0333,-0.033,-0.0273,-0.0231,-0.0192,-0.0154,-0.0117,-0.0076,-0.0008,0.0022,0.0067,0.0111,0.0148,0.0161,0.0163,0.0195,0.0194,0.0192,0.0272,0.0279,0.0286,0.0258,0,0,0,0,0]},{"header":{"parameterUnit":"m.s-1","parameterCategory":2,"la1":30.2991,"la2":30.254,"lo1":-89.0895,"lo2":-89.0444,"dy":0.0017,"dx":0.0017,"nx":28,"ny":28,"refTime":"2025-09-16T09:00:00:Z","depth":"4","parameterNumber":3,"parameterNumberName":"V-component_of_CURRENTS"},"data":[0,0,0,0,0,0,0,0,0,0,0,0,0,0,0,0,0,0,0,0,0,0,0,0,0,0,0,0,0,0,0,0,0,0,0,0,0,0,0,0,0,0,0,0,0,0,0,0,0,0,0,0,0,0,0,0,0,0,0.0279,0.0279,0,0.0301,0.0302,0.0302,0.034,0.0341,0.0342,0.0342,0.0422,0.0423,0.0425,0,0,0,0,0,0,0,0,0,0,0,0,0,0.0224,0.0225,0.0279,0.0279,0.0279,0.0301,0.0302,0.0302,0.034,0.0341,0.0342,0.0343,0.0421,0.0423,0.0425,0,0,0,0,0,0,0,0,0,0,0,0,0,0.0248,0.0226,0.0279,0.0301,0.0303,0.0301,0.0302,0.0302,0.034,0.0341,0.0342,0.0343,0.0421,0.0423,0.0425,0.0419,0,0,0.0432,0.0433,0,0,0,0,0,0,0,0,0.0247,0.025,0.0297,0.0299,0.0301,0.0318,0.0311,0.0344,0.034,0.0327,0.0342,0.0343,0.0391,0.0396,0.0398,0.0423,0.0426,0.0432,0.0434,0.0434,0.0435,0,0,0,0,0,0,0,0.0245,0.0249,0.0289,0.0297,0.03,0.0294,0.0299,0.0317,0.0355,0.0328,0.0331,0.0332,0.0393,0.0396,0.0401,0.0428,0.0432,0.0434,0.0435,0.0436,0.0469,0.0469,0,0,0,0,0,0,0.0243,0.0248,0.0288,0.0289,0.0275,0.0294,0.03,0.0313,0.0353,0.036,0.0331,0.0333,0.0392,0.0398,0.0404,0.044,0.0434,0.0437,0.0438,0.0469,0.0469,0.0468,0,0,0,0,0,0,0.0242,0.0246,0.0287,0.0268,0.0272,0.0294,0.0308,0.0312,0.034,0.0355,0.0363,0.0357,0.0393,0.04,0.0443,0.0442,0.0438,0.044,0.047,0.0469,0.0469,0.0487,0,0,0,0,0,0,0.024,0.0246,0.0258,0.0268,0.0273,0.0299,0.0307,0.0312,0.0337,0.0342,0.0379,0.0386,0.0394,0.044,0.0445,0.0445,0.0441,0.0471,0.047,0.0469,0.0487,0.0487,0.0487,0,0,0,0,0,0.0238,0.0253,0.0259,0.0264,0.0289,0.0299,0.0302,0.032,0.0338,0.035,0.0381,0.0386,0.0436,0.0442,0.0449,0.0449,0.0471,0.047,0.0469,0.0487,0.0487,0.0487,0,0,0,0,0,0,0.0233,0.0258,0.0266,0.0287,0.0297,0.0306,0.0319,0.0333,0.0365,0.0378,0.0398,0.0407,0.0437,0.0439,0.0445,0.045,0.0447,0.0447,0.0458,0.0458,0.0458,0.0457,0.0443,0,0,0,0,0,0.0236,0.0256,0.0272,0.0286,0.0297,0.0312,0.0322,0.0334,0.0358,0.0374,0.0404,0.0422,0.0431,0.0446,0.0457,0.0475,0.0456,0.0471,0.0471,0.0471,0.0471,0.0428,0.0424,0.0465,0.0465,0.0465,0,0,0.0236,0.0252,0.0263,0.0287,0.0299,0.0317,0.0322,0.0343,0.0366,0.0378,0.0432,0.0434,0.0436,0.0451,0.0462,0.046,0.0452,0.0469,0.047,0.047,0.0426,0.0422,0.0418,0.0464,0.0464,0.0464,0,0,0.0239,0.0264,0.0281,0.0297,0.0318,0.0328,0.0341,0.0368,0.0393,0.0434,0.0436,0.0441,0.048,0.0464,0.0463,0.0468,0.0455,0.0468,0.0471,0.0428,0.0425,0.0421,0.0406,0.0401,0.0465,0.0465,0.0465,0,0.0235,0.0268,0.0285,0.0305,0.0323,0.034,0.0362,0.0384,0.0424,0.0435,0.0459,0.0472,0.048,0.0465,0.0465,0.0469,0.0452,0.0475,0.0429,0.0425,0.0421,0.0406,0.04,0.0466,0.0466,0.0466,0.0466,0,0.0252,0.0283,0.0296,0.0332,0.0349,0.0373,0.0401,0.0428,0.0462,0.0472,0.049,0.0493,0.0491,0.0485,0.0487,0.0451,0.0452,0.0436,0.0431,0.0418,0.0403,0.0396,0.0467,0.0467,0.0467,0.0467,0,0,0.0235,0.0297,0.0304,0.033,0.0372,0.0385,0.0424,0.045,0.0464,0.0498,0.0506,0.0511,0.0498,0.0493,0.0477,0.0444,0.0408,0.0433,0.0431,0.0424,0.0333,0.0334,0.0327,0.0383,0.0382,0.0381,0.0339,0,0.0247,0.0293,0.0322,0.0367,0.0397,0.0425,0.0457,0.0477,0.0497,0.0507,0.0496,0.0504,0.0505,0.05,0.0465,0.0419,0.039,0.0422,0.0342,0.034,0.0346,0.0319,0.0377,0.0334,0.0333,0.0332,0.0331,0,0.0261,0.0292,0.0345,0.0397,0.0412,0.0448,0.0484,0.0512,0.0516,0.0526,0.0513,0.0502,0.0468,0.0469,0.0394,0.0416,0.038,0.0347,0.0344,0.0332,0.0328,0.0345,0.0319,0.032,0.0321,0.0322,0.0322,0,0.0247,0.0309,0.0355,0.0377,0.0435,0.0473,0.0508,0.0526,0.0538,0.0537,0.0526,0.0491,0.0474,0.042,0.0368,0.0377,0.0278,0.0277,0.0247,0.0247,0.0254,0.0258,0.0217,0.0217,0.0217,0.0217,0.0217,0,0.0258,0.0289,0.0366,0.0393,0.0447,0.0489,0.0535,0.0552,0.0559,0.0538,0.054,0.0501,0.0458,0.04,0.0355,0.0284,0.0268,0.0243,0.0227,0.0265,0.027,0.025,0.0255,0.0215,0.0216,0.0216,0.0216,0,0.0241,0.0289,0.0337,0.0416,0.0451,0.0493,0.0565,0.0568,0.0591,0.0556,0.0555,0.0507,0.0434,0.0387,0.0291,0.0269,0.02,0.0178,0.0236,0.0226,0.0206,0.0212,0.0143,0.0142,0.0142,0.0141,0.0141,0,0.0239,0.0269,0.0353,0.0388,0.044,0.0514,0.0547,0.0587,0.0566,0.0539,0.0492,0.0447,0.0403,0.0285,0.0241,0.0172,0.0162,0.0151,0.0169,0.0202,0.0194,0.02,0.0206,0.014,0.014,0.014,0.014,0,0.0223,0.0255,0.029,0.0375,0.0431,0.0475,0.0521,0.0502,0.0502,0.0514,0.0432,0.0395,0.0314,0.0254,0.0214,0.0156,0.0171,0.0146,0.0147,0.0164,0.0198,0.0192,0.0199,0.0138,0.0139,0.0139,0.0139,0,0.0201,0.0214,0.027,0.0342,0.0406,0.0426,0.0456,0.044,0.0437,0.0396,0.036,0.0313,0.0293,0.0242,0.0185,0.0153,0.0148,0.0153,0.0153,0.0155,0.0176,0.0223,0.0149,0,0,0,0,0,0.0181,0.0188,0.0237,0.0296,0.036,0.0404,0.0421,0.043,0.0414,0.0347,0.0361,0.0286,0.0232,0.0207,0.0171,0.0171,0.014,0.013,0.0144,0.013,0.0132,0.0156,0,0,0,0,0,0,0.0159,0.0189,0.0209,0.0258,0.0297,0.0346,0.0361,0.0347,0.0314,0.0303,0.0268,0.0285,0.0223,0.0245,0.017,0.0163,0.017,0.0113,0.0113,0.0129,0.013,0.0132,0.0157,0,0,0,0,0]}]]